Terminal Aerodrome Forecast
Issued by NWS

Home | Current Version | Previous Version | Graphics & Text | Print | Product List | Glossary On
Versions: 1 2 3 4 5 6 7 8 9 10 11 12 13 14 15 16 17 18
000
FTUS43 KUNR 281253 AAA
TAFGCC
TAF AMD
KGCC 281253Z 2813/2912 27012KT P6SM SCT100
     FM281500 30025G35KT P6SM SCT100
     FM290300 26007KT P6SM SKC=

USA.gov is the U.S. government's official web portal to all federal, state and local government web resources and services.